Time,TemperatureF,DewpointF,PressureIn,WindDirection,WindDirectionDegrees,WindSpeedMPH,WindSpeedGustMPH,Humidity,HourlyPrecipIn,Conditions,Clouds,dailyrainin,SoftwareType,DateUTC
2013-05-26 00:03:00,48.0,38.0,30.29,ENE,64,0.0,-999.0,68,-99.99,,,-99.99,,2013-05-26 04:03:00,
2013-05-26 00:12:00,48.0,38.0,30.29,ENE,64,0.0,-999.0,68,-99.99,,,-99.99,,2013-05-26 04:12:00,
2013-05-26 00:23:00,46.0,37.0,30.29,ENE,64,0.0,-999.0,72,-99.99,,,-99.99,,2013-05-26 04:23:00,
2013-05-26 00:33:00,45.0,38.0,30.29,ENE,64,0.0,-999.0,76,-99.99,,,-99.99,,2013-05-26 04:33:00,
2013-05-26 00:42:00,45.0,38.0,30.29,ENE,64,0.0,-999.0,76,-99.99,,,-99.99,,2013-05-26 04:42:00,
2013-05-26 00:52:00,44.0,38.0,30.29,ENE,64,0.0,-999.0,79,-99.99,,,-99.99,,2013-05-26 04:52:00,
2013-05-26 01:02:00,43.0,38.0,30.29,ENE,64,0.0,-999.0,81,-99.99,,,-99.99,,2013-05-26 05:02:00,
2013-05-26 01:12:00,43.0,38.0,30.29,ENE,64,0.0,-999.0,81,-99.99,,,-99.99,,2013-05-26 05:12:00,
2013-05-26 01:22:00,42.0,37.0,30.29,ENE,64,0.0,-999.0,83,-99.99,,,-99.99,,2013-05-26 05:22:00,
2013-05-26 01:32:00,42.0,38.0,30.28,ENE,64,0.0,-999.0,85,-99.99,,,-99.99,,2013-05-26 05:32:00,
2013-05-26 01:42:00,42.0,38.0,30.28,ENE,64,0.0,-999.0,85,-99.99,,,-99.99,,2013-05-26 05:42:00,
2013-05-26 01:52:00,41.0,37.0,30.28,ENE,64,0.0,-999.0,87,-99.99,,,-99.99,,2013-05-26 05:52:00,
2013-05-26 02:01:00,41.0,38.0,30.28,ENE,64,0.0,-999.0,88,-99.99,,,-99.99,,2013-05-26 06:01:00,
2013-05-26 02:12:00,41.0,38.0,30.28,ENE,64,0.0,-999.0,88,-99.99,,,-99.99,,2013-05-26 06:12:00,
2013-05-26 02:22:00,41.0,38.0,30.28,ENE,64,0.0,-999.0,90,-99.99,,,-99.99,,2013-05-26 06:22:00,
2013-05-26 02:32:00,41.0,40.0,30.28,ENE,64,0.0,-999.0,97,-99.99,,,-99.99,,2013-05-26 06:32:00,
2013-05-26 02:42:00,41.0,40.0,30.28,ENE,64,0.0,-999.0,97,-99.99,,,-99.99,,2013-05-26 06:42:00,
2013-05-26 02:52:00,40.0,38.0,30.28,ENE,64,0.0,-999.0,92,-99.99,,,-99.99,,2013-05-26 06:52:00,
2013-05-26 03:01:00,40.0,38.0,30.27,ENE,64,0.0,-999.0,93,-99.99,,,-99.99,,2013-05-26 07:01:00,
2013-05-26 03:11:00,40.0,38.0,30.27,ENE,64,0.0,-999.0,93,-99.99,,,-99.99,,2013-05-26 07:11:00,
2013-05-26 03:22:00,40.0,38.0,30.28,ENE,64,0.0,-999.0,93,-99.99,,,-99.99,,2013-05-26 07:22:00,
2013-05-26 03:32:00,40.0,38.0,30.27,ENE,64,0.0,-999.0,93,-99.99,,,-99.99,,2013-05-26 07:32:00,
2013-05-26 03:42:00,40.0,38.0,30.27,ENE,64,0.0,-999.0,93,-99.99,,,-99.99,,2013-05-26 07:42:00,
2013-05-26 03:52:00,40.0,38.0,30.27,ENE,64,0.0,-999.0,94,-99.99,,,-99.99,,2013-05-26 07:52:00,
2013-05-26 04:01:00,39.0,37.0,30.27,ENE,64,0.0,-999.0,94,-99.99,,,-99.99,,2013-05-26 08:01:00,
2013-05-26 04:12:00,39.0,37.0,30.27,ENE,64,0.0,-999.0,94,-99.99,,,-99.99,,2013-05-26 08:12:00,
2013-05-26 04:21:00,40.0,39.0,30.27,NW,317,1.0,-999.0,95,-99.99,,,-99.99,,2013-05-26 08:21:00,
2013-05-26 04:32:00,41.0,38.0,30.28,NW,310,3.0,-999.0,90,-99.99,,,-99.99,,2013-05-26 08:32:00,
2013-05-26 04:42:00,41.0,38.0,30.28,NW,310,3.0,-999.0,90,-99.99,,,-99.99,,2013-05-26 08:42:00,
2013-05-26 04:53:00,41.0,38.0,30.28,NW,310,1.0,-999.0,90,-99.99,,,-99.99,,2013-05-26 08:53:00,
2013-05-26 05:01:00,40.0,37.0,30.28,NW,310,0.0,-999.0,89,-99.99,,,-99.99,,2013-05-26 09:01:00,
2013-05-26 05:11:00,40.0,37.0,30.28,NW,310,0.0,-999.0,88,-99.99,,,-99.99,,2013-05-26 09:11:00,
2013-05-26 05:21:00,40.0,37.0,30.28,NW,310,0.0,-999.0,88,-99.99,,,-99.99,,2013-05-26 09:21:00,
2013-05-26 05:33:00,40.0,37.0,30.27,NW,310,0.0,-999.0,89,-99.99,,,-99.99,,2013-05-26 09:33:00,
2013-05-26 05:43:00,40.0,37.0,30.27,NW,310,0.0,-999.0,89,-99.99,,,-99.99,,2013-05-26 09:43:00,
2013-05-26 05:53:00,39.0,36.0,30.28,NW,310,0.0,-999.0,90,-99.99,,,-99.99,,2013-05-26 09:53:00,
2013-05-26 06:02:00,39.0,36.0,30.29,NW,310,0.0,-999.0,90,-99.99,,,-99.99,,2013-05-26 10:02:00,
2013-05-26 06:12:00,39.0,36.0,30.29,NW,310,0.0,-999.0,90,-99.99,,,-99.99,,2013-05-26 10:12:00,
2013-05-26 06:23:00,39.0,37.0,30.29,NW,310,0.0,-999.0,91,-99.99,,,-99.99,,2013-05-26 10:23:00,
2013-05-26 06:33:00,38.0,36.0,30.29,NW,310,0.0,-999.0,91,-99.99,,,-99.99,,2013-05-26 10:33:00,
2013-05-26 06:42:00,38.0,36.0,30.29,NW,310,0.0,-999.0,91,-99.99,,,-99.99,,2013-05-26 10:42:00,
2013-05-26 06:52:00,39.0,37.0,30.29,NW,313,0.0,-999.0,92,-99.99,,,-99.99,,2013-05-26 10:52:00,
2013-05-26 07:03:00,41.0,39.0,30.30,NW,313,0.0,-999.0,91,-99.99,,,-99.99,,2013-05-26 11:03:00,
2013-05-26 07:11:00,41.0,39.0,30.30,NW,313,0.0,-999.0,91,-99.99,,,-99.99,,2013-05-26 11:11:00,
2013-05-26 07:22:00,42.0,38.0,30.30,NW,313,1.0,-999.0,87,-99.99,,,-99.99,,2013-05-26 11:22:00,
2013-05-26 07:32:00,43.0,38.0,30.31,NW,313,2.0,-999.0,84,-99.99,,,-99.99,,2013-05-26 11:32:00,
2013-05-26 07:42:00,43.0,38.0,30.31,NW,313,2.0,-999.0,84,-99.99,,,-99.99,,2013-05-26 11:42:00,
2013-05-26 07:52:00,44.0,39.0,30.31,WNW,298,2.0,-999.0,81,-99.99,,,-99.99,,2013-05-26 11:52:00,
2013-05-26 08:02:00,45.0,39.0,30.31,NNW,336,5.0,-999.0,80,-99.99,,,-99.99,,2013-05-26 12:02:00,
2013-05-26 08:12:00,45.0,39.0,30.31,NNW,336,5.0,-999.0,80,-99.99,,,-99.99,,2013-05-26 12:12:00,
2013-05-26 08:22:00,46.0,40.0,30.31,NNW,336,6.0,-999.0,80,-99.99,,,-99.99,,2013-05-26 12:22:00,
2013-05-26 08:32:00,48.0,40.0,30.32,NNW,339,7.0,-999.0,74,-99.99,,,-99.99,,2013-05-26 12:32:00,
2013-05-26 08:42:00,48.0,40.0,30.32,NNW,339,7.0,-999.0,74,-99.99,,,-99.99,,2013-05-26 12:42:00,
2013-05-26 08:52:00,49.0,40.0,30.31,NNW,336,6.0,-999.0,72,-99.99,,,-99.99,,2013-05-26 12:52:00,
2013-05-26 09:02:00,51.0,40.0,30.32,NNW,343,7.0,-999.0,67,-99.99,,,-99.99,,2013-05-26 13:02:00,
2013-05-26 09:11:00,51.0,40.0,30.32,NNW,343,7.0,-999.0,67,-99.99,,,-99.99,,2013-05-26 13:11:00,
2013-05-26 09:22:00,52.0,41.0,30.32,NNW,335,7.0,-999.0,67,-99.99,,,-99.99,,2013-05-26 13:22:00,
2013-05-26 09:32:00,52.0,41.0,30.33,NNE,32,6.0,-999.0,66,-99.99,,,-99.99,,2013-05-26 13:32:00,
2013-05-26 09:42:00,52.0,41.0,30.33,NNE,32,6.0,-999.0,66,-99.99,,,-99.99,,2013-05-26 13:42:00,
2013-05-26 09:52:00,53.0,42.0,30.33,NNE,32,5.0,-999.0,66,-99.99,,,-99.99,,2013-05-26 13:52:00,
2013-05-26 10:02:00,53.0,43.0,30.32,NE,55,5.0,-999.0,68,-99.99,,,-99.99,,2013-05-26 14:02:00,
2013-05-26 10:11:00,53.0,43.0,30.32,NE,55,5.0,-999.0,68,-99.99,,,-99.99,,2013-05-26 14:11:00,
2013-05-26 10:22:00,53.0,42.0,30.32,ENE,59,5.0,-999.0,67,-99.99,,,-99.99,,2013-05-26 14:22:00,
2013-05-26 10:32:00,53.0,43.0,30.31,ENE,71,5.0,-999.0,68,-99.99,,,-99.99,,2013-05-26 14:32:00,
2013-05-26 10:42:00,53.0,43.0,30.31,ENE,71,5.0,-999.0,68,-99.99,,,-99.99,,2013-05-26 14:42:00,
2013-05-26 10:52:00,53.0,43.0,30.31,NNE,28,6.0,-999.0,70,-99.99,,,-99.99,,2013-05-26 14:52:00,
2013-05-26 11:01:00,53.0,43.0,30.31,NE,49,7.0,-999.0,70,-99.99,,,-99.99,,2013-05-26 15:01:00,
2013-05-26 11:12:00,53.0,43.0,30.31,NE,49,7.0,-999.0,70,-99.99,,,-99.99,,2013-05-26 15:12:00,
2013-05-26 11:22:00,53.0,43.0,30.31,NNE,24,6.0,-999.0,69,-99.99,,,-99.99,,2013-05-26 15:22:00,
2013-05-26 11:33:00,54.0,44.0,30.31,East,95,4.0,-999.0,69,-99.99,,,-99.99,,2013-05-26 15:33:00,
2013-05-26 11:43:00,54.0,44.0,30.31,East,95,4.0,-999.0,69,-99.99,,,-99.99,,2013-05-26 15:43:00,
2013-05-26 11:53:00,55.0,44.0,30.30,NE,43,4.0,-999.0,67,-99.99,,,-99.99,,2013-05-26 15:53:00,
2013-05-26 12:03:00,55.0,44.0,30.31,NE,39,6.0,-999.0,67,-99.99,,,-99.99,,2013-05-26 16:03:00,
2013-05-26 12:12:00,55.0,44.0,30.31,NE,39,6.0,-999.0,67,-99.99,,,-99.99,,2013-05-26 16:12:00,
2013-05-26 12:23:00,55.0,44.0,30.31,ENE,66,6.0,-999.0,67,-99.99,,,-99.99,,2013-05-26 16:23:00,
2013-05-26 12:33:00,56.0,44.0,30.31,North,5,5.0,-999.0,64,-99.99,,,-99.99,,2013-05-26 16:33:00,
2013-05-26 12:42:00,56.0,44.0,30.31,North,5,5.0,-999.0,64,-99.99,,,-99.99,,2013-05-26 16:42:00,
2013-05-26 12:53:00,56.0,44.0,30.31,ENE,63,6.0,-999.0,64,-99.99,,,-99.99,,2013-05-26 16:53:00,
2013-05-26 13:02:00,56.0,46.0,30.31,NE,44,6.0,-999.0,68,-99.99,,,-99.99,,2013-05-26 17:02:00,
2013-05-26 13:11:00,56.0,46.0,30.31,NE,44,6.0,-999.0,68,-99.99,,,-99.99,,2013-05-26 17:11:00,
2013-05-26 13:22:00,57.0,45.0,30.31,NE,51,6.0,-999.0,64,-99.99,,,-99.99,,2013-05-26 17:22:00,
2013-05-26 13:32:00,56.0,45.0,30.30,ENE,78,6.0,-999.0,66,-99.99,,,-99.99,,2013-05-26 17:32:00,
2013-05-26 13:42:00,56.0,45.0,30.30,ENE,78,6.0,-999.0,66,-99.99,,,-99.99,,2013-05-26 17:42:00,
2013-05-26 13:52:00,57.0,45.0,30.30,East,85,6.0,-999.0,65,-99.99,,,-99.99,,2013-05-26 17:52:00,
2013-05-26 14:01:00,58.0,42.0,30.29,ESE,107,3.0,-999.0,56,-99.99,,,-99.99,,2013-05-26 18:01:00,
2013-05-26 14:12:00,58.0,42.0,30.29,ESE,107,3.0,-999.0,56,-99.99,,,-99.99,,2013-05-26 18:12:00,
2013-05-26 14:22:00,58.0,42.0,30.29,East,86,5.0,-999.0,56,-99.99,,,-99.99,,2013-05-26 18:22:00,
2013-05-26 14:32:00,59.0,40.0,30.29,East,94,3.0,-999.0,50,-99.99,,,-99.99,,2013-05-26 18:32:00,
2013-05-26 14:42:00,59.0,40.0,30.29,East,94,3.0,-999.0,50,-99.99,,,-99.99,,2013-05-26 18:42:00,
2013-05-26 14:52:00,59.0,38.0,30.29,ESE,106,5.0,-999.0,46,-99.99,,,-99.99,,2013-05-26 18:52:00,
2013-05-26 15:01:00,60.0,39.0,30.29,ENE,71,3.0,-999.0,45,-99.99,,,-99.99,,2013-05-26 19:01:00,
2013-05-26 15:11:00,60.0,39.0,30.29,ENE,71,3.0,-999.0,45,-99.99,,,-99.99,,2013-05-26 19:11:00,
2013-05-26 15:22:00,59.0,38.0,30.29,ENE,69,5.0,-999.0,46,-99.99,,,-99.99,,2013-05-26 19:22:00,
2013-05-26 15:32:00,59.0,38.0,30.28,East,87,6.0,-999.0,46,-99.99,,,-99.99,,2013-05-26 19:32:00,
2013-05-26 15:42:00,59.0,38.0,30.28,East,87,6.0,-999.0,46,-99.99,,,-99.99,,2013-05-26 19:42:00,
2013-05-26 15:52:00,59.0,37.0,30.28,ENE,70,6.0,-999.0,44,-99.99,,,-99.99,,2013-05-26 19:52:00,
2013-05-26 16:02:00,58.0,37.0,30.27,ENE,68,9.0,-999.0,46,-99.99,,,-99.99,,2013-05-26 20:02:00,
2013-05-26 16:11:00,58.0,37.0,30.27,ENE,68,9.0,-999.0,46,-99.99,,,-99.99,,2013-05-26 20:11:00,
2013-05-26 16:22:00,58.0,37.0,30.27,ENE,59,8.0,-999.0,46,-99.99,,,-99.99,,2013-05-26 20:22:00,
2013-05-26 16:32:00,58.0,36.0,30.27,NE,34,8.0,-999.0,44,-99.99,,,-99.99,,2013-05-26 20:32:00,
2013-05-26 16:42:00,58.0,36.0,30.27,NE,34,8.0,-999.0,44,-99.99,,,-99.99,,2013-05-26 20:42:00,
2013-05-26 16:52:00,59.0,40.0,30.26,NNE,32,5.0,-999.0,49,-99.99,,,-99.99,,2013-05-26 20:52:00,
2013-05-26 17:02:00,59.0,40.0,30.25,NE,40,5.0,-999.0,50,-99.99,,,-99.99,,2013-05-26 21:02:00,
2013-05-26 17:11:00,59.0,40.0,30.25,NE,40,5.0,-999.0,50,-99.99,,,-99.99,,2013-05-26 21:11:00,
2013-05-26 17:22:00,59.0,42.0,30.25,ENE,62,6.0,-999.0,53,-99.99,,,-99.99,,2013-05-26 21:22:00,
2013-05-26 17:33:00,59.0,43.0,30.24,NE,42,7.0,-999.0,56,-99.99,,,-99.99,,2013-05-26 21:33:00,
2013-05-26 17:43:00,59.0,43.0,30.24,NE,42,7.0,-999.0,56,-99.99,,,-99.99,,2013-05-26 21:43:00,
2013-05-26 17:53:00,59.0,43.0,30.24,NNE,18,7.0,-999.0,56,-99.99,,,-99.99,,2013-05-26 21:53:00,
2013-05-26 18:03:00,58.0,41.0,30.24,NNE,30,8.0,-999.0,53,-99.99,,,-99.99,,2013-05-26 22:03:00,
2013-05-26 18:12:00,58.0,41.0,30.24,NNE,30,8.0,-999.0,53,-99.99,,,-99.99,,2013-05-26 22:12:00,
2013-05-26 18:23:00,58.0,41.0,30.24,ENE,59,5.0,-999.0,53,-99.99,,,-99.99,,2013-05-26 22:23:00,
2013-05-26 18:33:00,57.0,41.0,30.23,ENE,62,7.0,-999.0,55,-99.99,,,-99.99,,2013-05-26 22:33:00,
2013-05-26 18:42:00,57.0,41.0,30.23,ENE,63,7.0,-999.0,55,-99.99,,,-99.99,,2013-05-26 22:42:00,
2013-05-26 18:53:00,57.0,41.0,30.23,ENE,63,7.0,-999.0,55,-99.99,,,-99.99,,2013-05-26 22:53:00,
2013-05-26 19:02:00,57.0,42.0,30.23,NNE,13,7.0,-999.0,57,-99.99,,,-99.99,,2013-05-26 23:02:00,
2013-05-26 19:12:00,57.0,42.0,30.23,NNE,13,7.0,-999.0,57,-99.99,,,-99.99,,2013-05-26 23:12:00,
2013-05-26 19:22:00,57.0,41.0,30.22,ENE,69,7.0,-999.0,56,-99.99,,,-99.99,,2013-05-26 23:22:00,
2013-05-26 19:32:00,57.0,42.0,30.23,NE,40,6.0,-999.0,57,-99.99,,,-99.99,,2013-05-26 23:32:00,
2013-05-26 19:43:00,57.0,42.0,30.23,NE,40,6.0,-999.0,57,-99.99,,,-99.99,,2013-05-26 23:43:00,
2013-05-26 19:52:00,57.0,40.0,30.22,NE,55,7.0,-999.0,53,-99.99,,,-99.99,,2013-05-26 23:52:00,
2013-05-26 20:02:00,57.0,40.0,30.22,ENE,62,5.0,-999.0,52,-99.99,,,-99.99,,2013-05-27 00:02:00,
2013-05-26 20:11:00,57.0,40.0,30.22,ENE,62,5.0,-999.0,52,-99.99,,,-99.99,,2013-05-27 00:11:00,
2013-05-26 20:22:00,56.0,41.0,30.22,NE,53,7.0,-999.0,56,-99.99,,,-99.99,,2013-05-27 00:22:00,
2013-05-26 20:32:00,56.0,41.0,30.22,ENE,61,6.0,-999.0,56,-99.99,,,-99.99,,2013-05-27 00:32:00,
2013-05-26 20:42:00,56.0,41.0,30.22,ENE,61,6.0,-999.0,56,-99.99,,,-99.99,,2013-05-27 00:42:00,
2013-05-26 20:52:00,56.0,42.0,30.22,NE,46,6.0,-999.0,59,-99.99,,,-99.99,,2013-05-27 00:52:00,
2013-05-26 21:01:00,56.0,43.0,30.21,East,87,5.0,-999.0,62,-99.99,,,-99.99,,2013-05-27 01:01:00,
2013-05-26 21:11:00,56.0,43.0,30.21,East,87,5.0,-999.0,62,-99.99,,,-99.99,,2013-05-27 01:11:00,
2013-05-26 21:22:00,56.0,43.0,30.21,NE,40,6.0,-999.0,62,-99.99,,,-99.99,,2013-05-27 01:22:00,
2013-05-26 21:32:00,56.0,44.0,30.21,NE,54,5.0,-999.0,64,-99.99,,,-99.99,,2013-05-27 01:32:00,
2013-05-26 21:42:00,56.0,45.0,30.21,ENE,58,5.0,-999.0,67,-99.99,,,-99.99,,2013-05-27 01:42:00,
2013-05-26 21:52:00,56.0,45.0,30.21,ENE,58,5.0,-999.0,67,-99.99,,,-99.99,,2013-05-27 01:52:00,
2013-05-26 22:02:00,56.0,45.0,30.22,NE,39,4.0,-999.0,66,-99.99,,,-99.99,,2013-05-27 02:02:00,
2013-05-26 22:11:00,56.0,45.0,30.22,NE,39,4.0,-999.0,66,-99.99,,,-99.99,,2013-05-27 02:11:00,
2013-05-26 22:22:00,56.0,45.0,30.22,ENE,63,3.0,-999.0,66,-99.99,,,-99.99,,2013-05-27 02:22:00,
2013-05-26 22:32:00,56.0,45.0,30.22,ENE,72,4.0,-999.0,67,-99.99,,,-99.99,,2013-05-27 02:32:00,
2013-05-26 22:42:00,56.0,45.0,30.22,ENE,72,4.0,-999.0,67,-99.99,,,-99.99,,2013-05-27 02:42:00,
2013-05-26 22:52:00,56.0,46.0,30.22,ENE,64,4.0,-999.0,68,-99.99,,,-99.99,,2013-05-27 02:52:00,
2013-05-26 23:02:00,55.0,45.0,30.22,East,86,4.0,-999.0,68,-99.99,,,-99.99,,2013-05-27 03:02:00,
2013-05-26 23:11:00,55.0,45.0,30.22,East,86,4.0,-999.0,68,-99.99,,,-99.99,,2013-05-27 03:11:00,
2013-05-26 23:21:00,55.0,45.0,30.22,NE,56,3.0,-999.0,69,-99.99,,,-99.99,,2013-05-27 03:21:00,
2013-05-26 23:33:00,55.0,45.0,30.22,ENE,70,2.0,-999.0,70,-99.99,,,-99.99,,2013-05-27 03:33:00,
2013-05-26 23:43:00,55.0,45.0,30.22,ENE,70,2.0,-999.0,70,-99.99,,,-99.99,,2013-05-27 03:43:00,
2013-05-26 23:53:00,55.0,46.0,30.22,ENE,77,3.0,-999.0,71,-99.99,,,-99.99,,2013-05-27 03:53:00,